Hoquiam, WA

11:57 AM PDT on June 22, 2017 (GMT -0700)
Bowerman

Weather History for KHQM - January, 2014

Change the Weather History Date:

Tuesday, January 7, 2014

  Actual Average Record
Temperature  
Mean Temperature 42 °F 42 °F  
Max Temperature 45 °F 46 °F 56 °F (2003)
Min Temperature 39 °F 38 °F 16 °F (1974)
Degree Days  
Heating Degree Days 23 23  
Month to date heating degree days 165 161  
Cooling Degree Days 0 0  
Month to date cooling degree days 0 0  
Year to date cooling degree days 0 0  
Moisture  
Dew Point -    
Average Humidity    
Maximum Humidity    
Minimum Humidity    
Precipitation  
Precipitation 0.84 in 0.36 in 3.48 in (2009)
Month to date precipitation 1.76 2.44  
Year to date precipitation 1.76 2.44  
Sea Level Pressure  
Sea Level Pressure 30.02 in    
Wind  
Wind Speed 7 mph (ENE)    
Max Wind Speed 14 mph    
Max Gust Speed 17 mph    
Visibility 3 miles    
Events Rain    
T = Trace of Precipitation, MM = Missing Value Source: NWS Daily Summary

Daily Weather History Graph

Daily Weather History Graph

Search for Another Location

Airport or City:

Trip Planner

Search our weather history database for the weather conditions in past years. The results will help you decide how hot, cold, wet, or windy it might be!

Date:

Astronomy

Jan. 07, 2014 Rise Set
Actual Time 8:00 AM PST 4:43 PM PST
Civil Twilight 7:25 AM PST 5:18 PM PST
Nautical Twilight 6:47 AM PST 5:57 PM PST
Astronomical Twilight 6:10 AM PST 6:33 PM PST
Moon 11:23 AM PST (1/7) No Moon Set
Length of Visible Light 9h 53m
Length of Day
8h 43m
Waxing Crescent, 46% of the Moon is Illuminated
Jan 7
Waxing Crescent
Jan 7
First Quarter
Jan 15
Full
Jan 23
Last Quarter
Jan 30
New

Hourly Weather History & Observations

Time (PST) Temp. Dew Point Humidity Pressure Visibility Wind Dir Wind Speed Gust Speed Precip Events Conditions
12:01 AM - - N/A% 30.11 in 3.0 mi ENE 11.5 mph - 0.01 in Rain Light Rain
12:43 AM - - N/A% 30.10 in 2.0 mi ENE 4.6 mph - 0.05 in Rain Light Rain
12:53 AM - - N/A% 30.12 in 2.5 mi East 9.2 mph - 0.06 in Rain Light Rain
1:00 AM - - N/A% 30.10 in 3.0 mi East 9.2 mph - 0.01 in Rain Light Rain
1:09 AM - - N/A% 30.10 in 2.5 mi East 8.1 mph - 0.02 in Rain Light Rain
1:20 AM - - N/A% 30.10 in 3.0 mi ENE 5.8 mph - 0.02 in Rain Light Rain
1:51 AM - - N/A% 30.09 in 2.5 mi East 9.2 mph - 0.03 in Rain Light Rain
1:53 AM - - N/A% 30.11 in 2.5 mi East 9.2 mph - 0.03 in Rain Light Rain
2:13 AM - - N/A% 30.09 in 3.0 mi ENE 8.1 mph - 0.01 in Rain Light Rain
2:53 AM - - N/A% 30.11 in 4.0 mi ENE 8.1 mph - 0.02 in Rain Light Rain
3:28 AM - - N/A% 30.08 in 3.0 mi ENE 8.1 mph - 0.02 in Rain Light Rain
3:53 AM - - N/A% 30.09 in 6.0 mi ENE 9.2 mph - 0.02 in   Haze
4:53 AM - - N/A% 30.06 in 8.0 mi ENE 6.9 mph - N/A   Overcast
5:53 AM - - N/A% 30.05 in 7.0 mi ENE 6.9 mph - N/A   Overcast
6:02 AM - - N/A% 30.03 in 6.0 mi ENE 6.9 mph - N/A   Haze
6:53 AM - - N/A% 30.04 in 7.0 mi NE 8.1 mph - 0.01 in   Overcast
7:53 AM - - N/A% 30.03 in 5.0 mi NE 8.1 mph - 0.01 in Rain Light Rain
8:41 AM - - N/A% 30.01 in 2.5 mi East 4.6 mph - 0.06 in Rain Light Rain
9:04 AM - - N/A% 30.01 in 4.0 mi East 9.2 mph - 0.00 in Rain Light Rain
9:53 AM - - N/A% 30.04 in 7.0 mi NE 8.1 mph - 0.00 in   Overcast
10:53 AM - - N/A% 30.04 in 2.5 mi ENE 9.2 mph - 0.04 in Rain Light Rain
11:13 AM - - N/A% 30.01 in 5.0 mi NE 11.5 mph - 0.02 in Rain Light Rain
11:33 AM - - N/A% 30.01 in 2.0 mi ENE 11.5 mph - 0.04 in Rain Rain
11:53 AM - - N/A% 30.02 in 2.0 mi ENE 9.2 mph - 0.10 in Rain Light Rain
12:02 PM - - N/A% 29.99 in 2.5 mi NE 9.2 mph - 0.02 in Rain Light Rain
12:25 PM - - N/A% 29.98 in 4.0 mi NE 10.4 mph - 0.05 in Rain Light Rain
12:53 PM - - N/A% 29.99 in 3.0 mi NE 9.2 mph - 0.08 in Rain Light Rain
1:29 PM - - N/A% 29.97 in 2.0 mi NE 6.9 mph - 0.00 in   Overcast
1:53 PM - - N/A% 29.98 in 4.0 mi NE 8.1 mph - 0.01 in   Haze
2:02 PM - - N/A% 29.96 in 1.8 mi NE 6.9 mph - 0.00 in Rain Light Rain
2:17 PM - - N/A% 29.97 in 1.2 mi ENE 6.9 mph - 0.01 in Rain Light Rain
2:53 PM - - N/A% 29.99 in 1.2 mi NE 8.1 mph - 0.03 in Rain Light Rain
3:02 PM - - N/A% 29.97 in 2.5 mi NE 6.9 mph - 0.00 in   Overcast
3:53 PM - - N/A% 29.99 in 1.2 mi NE 8.1 mph - 0.01 in Rain Light Rain
4:22 PM - - N/A% 29.97 in 2.0 mi ENE 6.9 mph - 0.01 in Rain Light Rain
4:53 PM - - N/A% 30.00 in 1.5 mi NE 6.9 mph - 0.04 in Rain Light Rain
5:09 PM - - N/A% 29.98 in 2.5 mi NE 5.8 mph - 0.03 in Rain Light Rain
5:28 PM - - N/A% 29.98 in 4.0 mi NNE 6.9 mph - 0.06 in Rain Light Rain
5:53 PM - - N/A% 29.99 in 3.0 mi NE 5.8 mph - 0.08 in Rain Light Rain
6:06 PM - - N/A% 29.97 in 2.0 mi NE 6.9 mph - 0.03 in Rain Light Rain
6:33 PM - - N/A% 29.97 in 1.5 mi NE 6.9 mph - 0.07 in Rain Light Rain
6:53 PM - - N/A% 30.00 in 2.0 mi ENE 6.9 mph - 0.10 in Rain Light Rain
7:00 PM - - N/A% 29.97 in 1.2 mi ENE 5.8 mph - 0.04 in Rain Rain
7:15 PM - - N/A% 29.98 in 2.5 mi NE 8.1 mph - 0.05 in Rain Light Rain
7:23 PM - - N/A% 29.98 in 3.0 mi ENE 8.1 mph - 0.05 in Rain Light Rain
7:39 PM - - N/A% 29.98 in 2.5 mi ENE 6.9 mph - 0.05 in   Overcast
7:53 PM - - N/A% 30.00 in 1.5 mi ENE 6.9 mph - 0.08 in Rain Light Rain
8:19 PM - - N/A% 29.98 in 2.5 mi NE 6.9 mph - 0.01 in Rain Light Rain
8:43 PM - - N/A% 29.99 in 1.5 mi ENE 4.6 mph - 0.02 in Rain Light Rain
8:53 PM - - N/A% 30.01 in 2.0 mi NE 4.6 mph - 0.02 in Rain Light Rain
9:07 PM - - N/A% 29.99 in 2.0 mi ENE 3.5 mph - 0.01 in Rain Light Rain
9:14 PM - - N/A% 29.99 in 1.5 mi NE 3.5 mph - 0.01 in Rain Light Rain
9:41 PM - - N/A% 30.00 in 3.0 mi NE 3.5 mph - 0.02 in   Overcast
9:53 PM - - N/A% 30.02 in 3.0 mi Calm Calm - 0.02 in   Overcast
10:00 PM - - N/A% 30.00 in 2.0 mi NE 3.5 mph - 0.00 in Rain Light Rain
10:14 PM - - N/A% 30.00 in 3.0 mi NE 3.5 mph - 0.00 in   Overcast
10:28 PM - - N/A% 30.01 in 2.5 mi Variable 4.6 mph - 0.00 in Rain Light Rain
10:36 PM - - N/A% 30.01 in 3.0 mi Variable 4.6 mph - 0.00 in Rain Light Rain
10:53 PM - - N/A% 30.03 in 5.0 mi ENE 3.5 mph - 0.00 in   Haze
11:30 PM - - N/A% 30.00 in 4.0 mi ENE 3.5 mph - N/A   Haze
11:53 PM - - N/A% 30.02 in 3.0 mi ENE 4.6 mph - N/A   Overcast